Data for 09/08/2018

Time Sea-Level Adjusted Pressure Absolute Pressure Temperature Relative Humidity Dew Point   
(mb) (inHg) (mb) (inHg) (C) (F) (%) (C) (F)
00:05 1019 30.09 848 25.04 18.4 65 33 1.8 35.3
00:10 1019 30.09 848 25.04 18.1 64.6 34 2 35.7
00:15 1019 30.09 848 25.04 17.7 63.9 34 1.7 35.1
00:20 1019 30.09 848 25.04 17.7 63.8 34 1.9 35.4
00:25 1019 30.09 848 25.04 17.8 64 33 1.2 34.2
00:30 1019 30.09 848 25.04 17.7 63.9 33 1.4 34.6
00:35 1019 30.09 848 25.04 17.7 63.8 33 1.2 34.2
00:40 1019 30.09 848 25.04 17.8 64 33 1.4 34.5
00:45 1019 30.09 848 25.04 17.8 64 31 0.8 33.4
00:50 1019 30.09 848 25.04 18 64.3 32 1.2 34.1
00:55 1019 30.09 848 25.04 18 64.3 32 1 33.7
01:00 1019 30.09 848 25.04 17.9 64.1 34 1.8 35.3
01:05 1019 30.09 848 25.04 17.1 62.9 36 2.1 35.8
01:10 1019 30.09 848 25.04 16.9 62.4 34 1 33.8
01:15 1018 30.06 848 25.04 17.4 63.3 34 1.5 34.6
01:20 1018 30.06 847 25.01 17.2 62.9 34 1.4 34.4
01:25 1018 30.06 847 25.01 17.1 62.9 34 1.3 34.3
01:30 1018 30.06 847 25.01 17.2 63 32 0.5 33
01:35 1018 30.06 847 25.01 17.8 64 32 1 33.7
01:40 1018 30.06 847 25.01 17.8 64.1 31 0.7 33.3
01:45 1018 30.06 847 25.01 18.2 64.7 31 1 33.7
01:50 1018 30.06 847 25.01 18.3 64.9 31 1 33.8
01:55 1018 30.06 847 25.01 18.2 64.8 31 0.8 33.4
02:00 1018 30.06 847 25.01 18.3 65 31 1 33.7
02:05 1018 30.06 847 25.01 18.3 65 31 1.2 34.1
02:10 1018 30.06 847 25.01 18.1 64.6 31 0.8 33.4
02:15 1018 30.06 847 25.01 18.2 64.8 31 1 33.7
02:20 1018 30.06 847 25.01 18 64.5 32 1.1 33.9
02:25 1018 30.06 847 25.01 18.1 64.5 31 0.9 33.6
02:30 1018 30.06 847 25.01 18.2 64.8 30 0.7 33.3
02:35 1018 30.06 847 25.01 18.3 64.9 30 0.7 33.3
02:40 1018 30.06 847 25.01 18.2 64.7 31 1 33.8
02:45 1018 30.06 847 25.01 18 64.4 31 0.9 33.7
02:50 1018 30.06 847 25.01 17.9 64.2 33 1.5 34.8
02:55 1018 30.06 847 25.01 17.5 63.5 33 1.3 34.3
03:00 1018 30.06 847 25.01 17.8 64 33 1.5 34.6
03:05 1018 30.06 847 25.01 18.2 64.7 31 1.1 34
03:10 1018 30.06 847 25.01 18.6 65.4 30 1 33.7
03:15 1018 30.06 847 25.01 18.4 65.1 35 2.7 36.8
03:20 1018 30.06 847 25.01 17.5 63.5 36 2.5 36.4
03:25 1018 30.06 847 25.01 17 62.7 38 2.6 36.7
03:30 1018 30.06 847 25.01 16.5 61.6 40 3 37.3
03:35 1018 30.06 847 25.01 16.3 61.3 41 3.1 37.6
03:40 1018 30.06 847 25.01 16.2 61.1 40 2.7 36.9
03:45 1019 30.09 848 25.04 16.2 61.1 41 3 37.5
03:50 1019 30.09 848 25.04 16.1 60.9 42 3.4 38.1
03:55 1019 30.09 848 25.04 15.9 60.5 43 3.5 38.3
04:00 1019 30.09 848 25.04 15.6 60.2 44 3.6 38.5
04:05 1019 30.09 848 25.04 15.6 60.2 44 3.4 38.2
04:10 1019 30.09 848 25.04 15.5 59.8 47 4.3 39.8
04:15 1019 30.09 849 25.07 14.9 58.9 50 4.7 40.4
04:20 1020 30.12 849 25.07 14.6 58.3 46 3.1 37.6
04:25 1020 30.12 849 25.07 15.1 59.1 45 3.3 37.9
04:30 1020 30.12 849 25.07 15.4 59.7 46 3.9 39
04:35 1020 30.12 849 25.07 15.5 59.9 41 2.4 36.4
04:40 1020 30.12 849 25.07 16.2 61.1 38 2 35.6
04:45 1020 30.12 849 25.07 16.6 62 41 3.5 38.4
04:50 1020 30.12 849 25.07 16.7 62.1 37 2.2 35.9
04:55 1020 30.12 849 25.07 16.7 62.1 37 2.1 35.8
05:00 1020 30.12 849 25.07 16.6 61.8 41 3.4 38.1
05:05 1020 30.12 849 25.07 15.9 60.6 44 3.8 38.9
05:10 1020 30.12 849 25.07 15.3 59.5 47 4.1 39.3
05:15 1020 30.12 849 25.07 14.9 58.8 47 3.8 38.8
05:20 1020 30.12 849 25.07 15.2 59.3 45 3.2 37.8
05:25 1020 30.12 849 25.07 15.4 59.7 44 3.3 37.9
05:30 1020 30.12 849 25.07 15.6 60.1 41 2.3 36.2
05:35 1020 30.12 849 25.07 16.1 61 40 2.6 36.7
05:40 1019 30.09 849 25.07 16.1 60.9 41 3 37.5
05:45 1019 30.09 849 25.07 15.9 60.7 40 2.4 36.4
05:50 1019 30.09 848 25.04 16.6 61.9 37 1.8 35.3
05:55 1019 30.09 848 25.04 17 62.6 38 2.9 37.1
06:00 1019 30.09 848 25.04 16.7 62 40 3 37.4
06:05 1019 30.09 848 25.04 16.1 61 41 3.1 37.6
06:10 1019 30.09 848 25.04 16 60.8 41 2.8 37
06:15 1018 30.06 848 25.04 16 60.8 40 2.5 36.6
06:20 1018 30.06 848 25.04 16.4 61.6 38 2.3 36.2
06:25 1018 30.06 848 25.04 16.7 62 38 2.5 36.5
06:30 1018 30.06 848 25.04 16.7 62.1 38 2.4 36.4
06:35 1018 30.06 848 25.04 16.8 62.2 38 2.4 36.3
06:40 1018 30.06 848 25.04 16.8 62.2 37 2.1 35.7
06:45 1018 30.06 848 25.04 16.9 62.5 38 2.6 36.7
06:50 1018 30.06 848 25.04 17 62.7 36 2 35.5
06:55 1018 30.06 847 25.01 17.3 63.2 32 0.8 33.4
07:00 1018 30.06 847 25.01 17.9 64.1 33 1.3 34.4
07:05 1018 30.06 847 25.01 18 64.5 31 0.9 33.7
07:10 1018 30.06 847 25.01 18.4 65.1 31 1.3 34.3
07:15 1018 30.06 847 25.01 18.3 65 32 1.5 34.7
07:20 1018 30.06 847 25.01 18.3 65 32 1.3 34.4
07:25 1018 30.06 847 25.01 18.7 65.6 31 1.5 34.7
07:30 1018 30.06 847 25.01 18.9 66.1 32 1.9 35.4
07:35 1018 30.06 847 25.01 19 66.3 31 1.6 34.9
07:40 1018 30.06 847 25.01 19.4 66.9 31 1.8 35.3
07:45 1018 30.06 847 25.01 19.6 67.3 32 2.5 36.4
07:50 1018 30.06 847 25.01 19.8 67.7 32 2.7 36.9
07:55 1018 30.06 847 25.01 20.2 68.3 32 2.9 37.3
08:00 1018 30.06 847 25.01 20.6 69.1 30 2.6 36.7
08:05 1018 30.06 847 25.01 21 69.8 32 3.8 38.8
08:10 1018 30.06 847 25.01 21.4 70.4 30 3.3 38
08:15 1018 30.06 847 25.01 21.6 70.9 36 6 42.8
08:20 1018 30.06 847 25.01 22.1 71.7 29 3.6 38.5
08:25 1018 30.06 847 25.01 22.6 72.6 31 4.8 40.7
08:30 1018 30.06 847 25.01 23.1 73.6 29 4.4 40
08:35 1018 30.06 847 25.01 22.9 73.3 30 4.9 40.7
08:40 1018 30.06 847 25.01 22.8 73.1 31 5.1 41.1
08:45 1018 30.06 847 25.01 23.3 73.9 27 3.6 38.4
08:50 1018 30.06 847 25.01 23.8 74.8 26 3.1 37.6
08:55 1018 30.06 847 25.01 24.3 75.7 27 4.3 39.8
09:00 1018 30.06 847 25.01 23.8 74.9 25 3 37.4
09:05 1018 30.06 847 25.01 23.7 74.7 26 3.2 37.8
09:10 1018 30.06 847 25.01 24.1 75.4 25 2.9 37.2
09:15 1018 30.06 847 25.01 24.3 75.7 23 1.8 35.2
09:20 1017 30.03 847 25.01 24.1 75.4 22 1.2 34.2
09:25 1017 30.03 847 25.01 24.5 76.1 21 1.1 34
09:30 1017 30.03 847 25.01 24.9 76.9 22 2 35.6
09:35 1017 30.03 847 25.01 25.2 77.4 22 1.9 35.5
09:40 1017 30.03 847 25.01 25.5 77.9 23 3.2 37.7
09:45 1017 30.03 847 25.01 25.9 78.7 21 2.1 35.8
09:50 1017 30.03 847 25.01 25.9 78.7 21 2.2 35.9
09:55 1017 30.03 847 25.01 26.2 79.2 21 2.1 35.8
10:00 1017 30.03 847 25.01 26.5 79.7 20 2.3 36.2
10:05 1017 30.03 847 25.01 26.4 79.6 18 0.5 33
10:10 1017 30.03 847 25.01 26.4 79.5 20 1.7 35
10:15 1017 30.03 846 24.98 26.5 79.8 17 0.1 32.1
10:20 1017 30.03 846 24.98 26.6 79.9 18 0.4 32.7
10:25 1017 30.03 846 24.98 26.7 80.1 17 0.2 32.3
10:30 1017 30.03 846 24.98 26.2 79.2 17 -0.3 31.5
10:35 1017 30.03 846 24.98 26.5 79.7 17 -0.3 31.5
10:40 1017 30.03 846 24.98 27 80.5 17 0.3 32.6
10:45 1017 30.03 846 24.98 27 80.6 17 0.3 32.5
10:50 1017 30.03 846 24.98 26.9 80.4 19 1.4 34.6
10:55 1017 30.03 846 24.98 27.1 80.8 19 1.9 35.5
11:00 1017 30.03 846 24.98 27.3 81.1 18 0.8 33.5
11:05 1017 30.03 846 24.98 27.4 81.2 19 2 35.7
11:10 1017 30.03 846 24.98 26.9 80.4 21 3.2 37.7
11:15 1017 30.03 846 24.98 27 80.6 19 2 35.7
11:20 1017 30.03 846 24.98 27.6 81.7 18 1.6 34.8
11:25 1017 30.03 846 24.98 27.1 80.8 19 1.5 34.7
11:30 1017 30.03 846 24.98 26.3 79.3 18 0.3 32.5
11:35 1017 30.03 846 24.98 26.2 79.2 17 -0.3 31.4
11:40 1017 30.03 846 24.98 27.1 80.8 16 -0.8 30.6
11:45 1017 30.03 846 24.98 26.8 80.2 15 -1.9 28.7
11:50 1017 30.03 846 24.98 27 80.5 14 -2.8 26.9
11:55 1017 30.03 846 24.98 27.3 81.1 14 -2.4 27.6
12:00 1016 30 846 24.98 26.6 79.9 15 -1.7 28.9
12:05 1016 30 846 24.98 27 80.5 16 -0.8 30.6
12:10 1016 30 846 24.98 26.9 80.3 15 -1.7 29
12:15 1016 30 846 24.98 26.9 80.5 14 -2.2 28
12:20 1016 30 845 24.95 27 80.6 15 -1.4 29.5
12:25 1016 30 845 24.95 26.5 79.8 16 -0.7 30.8
12:30 1016 30 845 24.95 26.7 80.1 16 -0.5 31.1
12:35 1016 30 845 24.95 26.4 79.4 18 0 32.1
12:40 1016 30 845 24.95 27 80.7 15 -1.2 29.9
12:45 1016 30 845 24.95 27.7 81.8 15 -1.1 30
12:50 1016 30 845 24.95 27.4 81.3 15 -1.7 29
12:55 1016 30 845 24.95 27.3 81.1 15 -1.1 30
13:00 1016 30 845 24.95 27.6 81.6 15 -1.2 29.9
13:05 1016 30 845 24.95 26.9 80.4 15 -1.4 29.4
13:10 1016 30 845 24.95 27.3 81.2 15 -1.4 29.5
13:15 1016 30 845 24.95 27.4 81.2 15 -1.4 29.5
13:20 1015 29.97 845 24.95 27.6 81.7 16 -0.6 30.9
13:25 1015 29.97 845 24.95 27.8 82 15 -0.7 30.7
13:30 1016 30 845 24.95 27 80.5 17 -0.3 31.5
13:35 1015 29.97 845 24.95 27.1 80.8 16 -0.8 30.6
13:40 1015 29.97 845 24.95 27.3 81.2 15 -0.8 30.5
13:45 1015 29.97 845 24.95 27.1 80.8 16 -0.9 30.3
13:50 1015 29.97 845 24.95 26.9 80.4 15 -1.2 29.8
13:55 1015 29.97 845 24.95 26.7 80.1 17 -0.3 31.4
14:00 1015 29.97 845 24.95 26.5 79.7 17 -0.2 31.7
14:05 1015 29.97 844 24.92 25.8 78.4 16 -1.9 28.6
14:10 1015 29.97 844 24.92 25.9 78.6 17 -0.7 30.7
14:15 1015 29.97 844 24.92 26.3 79.3 16 -0.9 30.4
14:20 1015 29.97 844 24.92 26.7 80 16 -1 30.3
14:25 1015 29.97 844 24.92 26.9 80.5 15 -1.4 29.5
14:30 1015 29.97 844 24.92 27.5 81.4 14 -1.7 28.9
14:35 1015 29.97 844 24.92 27.6 81.6 14 -2.2 28.1
14:40 1015 29.97 844 24.92 27 80.5 14 -2.2 28
14:45 1015 29.97 844 24.92 27.6 81.6 14 -1.8 28.8
14:50 1015 29.97 844 24.92 28 82.4 14 -1.4 29.5
14:55 1015 29.97 844 24.92 27.2 80.9 15 -1.8 28.7
15:00 1015 29.97 844 24.92 27.3 81.2 17 0.3 32.5
15:05 1015 29.97 844 24.92 27.9 82.2 14 -2.1 28.3
15:10 1015 29.97 844 24.92 28.6 83.5 13 -2 28.3
15:15 1015 29.97 844 24.92 28.3 83 14 -1.5 29.2
15:20 1015 29.97 844 24.92 27.6 81.7 15 -1.4 29.4
15:25 1015 29.97 844 24.92 27.3 81.2 15 -1.4 29.4
15:30 1015 29.97 844 24.92 27.3 81.1 15 -1.8 28.8
15:35 1015 29.97 844 24.92 27.1 80.9 15 -1.5 29.3
15:40 1015 29.97 844 24.92 26.9 80.4 15 -1.5 29.2
15:45 1015 29.97 844 24.92 27.1 80.7 15 -1.4 29.5
15:50 1015 29.97 844 24.92 26.9 80.5 14 -2.1 28.2
15:55 1015 29.97 844 24.92 27.1 80.8 15 -1.3 29.7
16:00 1015 29.97 844 24.92 26.5 79.6 15 -2.3 27.8
16:05 1015 29.97 844 24.92 26.6 79.8 15 -1.5 29.3
16:10 1015 29.97 844 24.92 26.9 80.5 15 -1.5 29.3
16:15 1015 29.97 844 24.92 28 82.4 15 -0.8 30.5
16:20 1015 29.97 844 24.92 27.9 82.2 15 -1 30.2
16:25 1015 29.97 844 24.92 27.1 80.9 16 -0.8 30.5
16:30 1015 29.97 844 24.92 27 80.5 16 -1 30.1
16:35 1015 29.97 844 24.92 26.9 80.5 15 -1.3 29.7
16:40 1015 29.97 844 24.92 26.8 80.2 17 -0.3 31.5
16:45 1015 29.97 844 24.92 26.8 80.2 17 0.4 32.6
16:50 1015 29.97 844 24.92 27 80.7 17 -0.2 31.7
16:55 1015 29.97 844 24.92 26.7 80.1 16 -1 30.3
17:00 1015 29.97 844 24.92 26.6 79.9 16 -1.2 29.8
17:05 1015 29.97 844 24.92 26.6 79.9 16 -0.6 30.9
17:10 1015 29.97 844 24.92 26.4 79.5 17 -0.1 31.7
17:15 1015 29.97 844 24.92 26.1 78.9 18 -0.2 31.7
17:20 1015 29.97 844 24.92 25.8 78.4 19 0.3 32.6
17:25 1015 29.97 844 24.92 25.6 78.2 18 0.1 32.2
17:30 1015 29.97 844 24.92 25.5 78 18 -0 31.9
17:35 1015 29.97 844 24.92 25.4 77.7 19 0.6 33
17:40 1015 29.97 844 24.92 25.1 77.2 20 0.9 33.7
17:45 1015 29.97 844 24.92 24.9 76.8 20 0.9 33.7
17:50 1015 29.97 844 24.92 24.6 76.3 20 0.7 33.3
17:55 1015 29.97 844 24.92 24.3 75.8 21 1.1 34
18:00 1015 29.97 844 24.92 24.1 75.3 22 1 33.8
18:05 1015 29.97 845 24.95 23.9 74.9 22 1.1 33.9
18:10 1015 29.97 845 24.95 23.7 74.6 22 0.9 33.5
18:15 1015 29.97 845 24.95 23.5 74.3 22 1 33.7
18:20 1015 29.97 845 24.95 23.3 73.9 22 0.6 33
18:25 1015 29.97 845 24.95 23.2 73.7 23 1 33.8
18:30 1016 30 845 24.95 23 73.3 23 0.8 33.5
18:35 1016 30 845 24.95 22.9 73.1 22 0.5 32.9
18:40 1016 30 845 24.95 22.8 73 23 0.6 33.1
18:45 1016 30 845 24.95 22.5 72.6 23 0.8 33.4
18:50 1016 30 845 24.95 22.3 72.1 23 0.5 32.9
18:55 1016 30 845 24.95 22 71.7 24 0.9 33.7
19:00 1016 30 845 24.95 21.8 71.2 24 0.8 33.4
19:05 1016 30 845 24.95 21.5 70.7 25 0.8 33.4
19:10 1016 30 845 24.95 21.4 70.5 25 0.5 33
19:15 1016 30 845 24.95 21.3 70.4 26 1.5 34.6
19:20 1016 30 845 24.95 20.9 69.6 27 1.4 34.6
19:25 1016 30 845 24.95 20.6 69.2 27 1.4 34.4
19:30 1016 30 846 24.98 20.6 69.2 27 1.3 34.4
19:35 1016 30 846 24.98 20.7 69.2 27 1.4 34.5
19:40 1016 30 846 24.98 20.7 69.2 26 0.9 33.5
19:45 1017 30.03 846 24.98 20.8 69.4 26 0.9 33.6
19:50 1017 30.03 846 24.98 20.8 69.4 26 0.9 33.6
19:55 1017 30.03 846 24.98 20.8 69.5 26 1 33.7
20:00 1017 30.03 846 24.98 20.8 69.4 27 1 33.8
20:05 1017 30.03 846 24.98 20.6 69.1 27 1.1 33.9
20:10 1017 30.03 846 24.98 20.5 68.9 30 2.5 36.5
20:15 1017 30.03 846 24.98 20.4 68.7 27 0.9 33.6
20:20 1017 30.03 846 24.98 20.5 68.9 29 2 35.7
20:25 1017 30.03 846 24.98 19.9 67.8 29 1.5 34.6
20:30 1017 30.03 846 24.98 19.9 67.7 30 1.7 35.1
20:35 1017 30.03 846 24.98 19.9 67.8 29 1.6 34.9
20:40 1017 30.03 846 24.98 20.1 68.1 26 -0 32
20:45 1017 30.03 846 24.98 20.6 69 28 1.7 35.1
20:50 1017 30.03 846 24.98 20.2 68.3 26 0.2 32.3
20:55 1017 30.03 846 24.98 20.6 69.1 25 0.2 32.4
21:00 1017 30.03 846 24.98 20.4 68.8 30 2.7 36.8
21:05 1017 30.03 846 24.98 19.3 66.7 30 1.5 34.7
21:10 1017 30.03 846 24.98 18.8 65.8 36 3.7 38.7
21:15 1017 30.03 847 25.01 17.9 64.2 35 2.5 36.5
21:20 1017 30.03 847 25.01 18.2 64.8 33 1.6 34.9
21:25 1017 30.03 846 24.98 18.5 65.4 35 3.1 37.5
21:30 1017 30.03 846 24.98 17.8 64 39 3.8 38.9
21:35 1017 30.03 846 24.98 17.5 63.4 37 2.8 37
21:40 1017 30.03 847 25.01 17.8 64 35 2.2 36
21:45 1017 30.03 847 25.01 18 64.4 39 3.8 38.8
21:50 1018 30.06 847 25.01 17.4 63.3 39 3.5 38.4
21:55 1018 30.06 847 25.01 17.1 62.8 39 3.1 37.6
22:00 1018 30.06 847 25.01 16.9 62.5 40 3.5 38.3
22:05 1018 30.06 847 25.01 16.8 62.3 42 3.8 38.9
22:10 1018 30.06 847 25.01 16.2 61.2 45 4.3 39.7
22:15 1018 30.06 847 25.01 16.1 60.9 40 2.7 36.9
22:20 1018 30.06 847 25.01 16.7 62 38 2.5 36.4
22:25 1018 30.06 847 25.01 17 62.6 36 2.1 35.8
22:30 1018 30.06 847 25.01 17.1 62.7 35 1.4 34.5
22:35 1018 30.06 847 25.01 17.4 63.2 34 1.5 34.7
22:40 1018 30.06 847 25.01 17.4 63.3 34 1.5 34.7
22:45 1018 30.06 847 25.01 17.3 63.1 34 1.3 34.3
22:50 1018 30.06 847 25.01 17.3 63.1 33 0.9 33.6
22:55 1018 30.06 847 25.01 17.3 63.2 33 0.8 33.5
23:00 1018 30.06 847 25.01 17.3 63.1 32 0.5 32.9
23:05 1018 30.06 847 25.01 17.4 63.2 32 0.7 33.3
23:10 1018 30.06 847 25.01 17.3 63.1 32 0.7 33.3
23:15 1018 30.06 847 25.01 17.1 62.8 33 0.8 33.5
23:20 1018 30.06 847 25.01 16.9 62.5 33 0.8 33.4
23:25 1018 30.06 847 25.01 16.8 62.3 33 0.7 33.2
23:30 1018 30.06 847 25.01 16.7 62.1 34 0.7 33.3
23:35 1018 30.06 847 25.01 16.6 61.8 34 0.6 33.2
23:40 1018 30.06 847 25.01 16.5 61.6 34 0.6 33.1
23:45 1018 30.06 847 25.01 16.3 61.3 35 0.7 33.3
23:50 1018 30.06 847 25.01 16.2 61.1 34 0.5 32.9
23:55 1018 30.06 847 25.01 16 60.9 35 0.7 33.3
24:00 1018 30.06 847 25.01 15.9 60.6 35 0.6 33.1